Wind_Speed
12 12 13 14 14 14 14 13 13 11 10 10 10 10 10 10 10 13 16 6 13 4 14 6 13 14 15 19 17 3 3 2 5 13 9 15 8 10 5 12 19 16 31 35 36
13 13 13 13 13 14 14 14 13 12 11 10 10 10 10 11 12 18 11 12 13 10 15 14 14 13 18 17 6 11 3 3 4 12 12 20 11 14 5 5 10 31 33 34 43
14 14 14 14 13 13 13 13 12 12 11 11 10 10 10 10 10 6 5 15 13 13 15 16 13 15 18 19 9 7 5 7 16 24 22 19 13 13 13 7 31 33 39 35 44
15 15 14 14 14 13 12 12 12 11 10 10 10 9 8 7 1 2 2 8 9 13 18 16 21 17 10 9 19 8 16 17 22 25 23 15 20 12 11 6 31 40 37 33 35
16 15 15 15 13 13 12 12 12 13 10 9 9 8 7 5 13 7 6 8 12 17 21 15 17 20 11 9 8 3 4 3 20 23 21 17 21 21 15 16 33 38 34 29 27
17 16 15 14 14 12 12 11 13 13 11 8 8 7 6 6 3 6 7 7 15 21 21 16 15 18 17 19 13 9 8 13 21 23 24 17 17 13 13 28 31 34 30 28 27
18 18 17 15 13 12 11 10 13 10 9 7 7 6 10 18 3 4 9 10 15 23 16 14 16 17 16 12 12 30 7 16 8 28 12 26 7 8 24 22 31 31 28 27 30
19 19 19 17 14 11 9 10 8 7 5 6 6 6 10 7 8 10 4 7 15 20 17 11 14 18 15 16 18 7 7 4 8 20 22 13 6 9 22 23 29 30 28 27 27
21 20 19 17 12 10 7 5 4 3 2 4 5 3 9 4 14 12 11 14 16 15 15 12 13 13 13 5 6 6 6 9 5 17 18 6 9 9 18 22 32 30 29 27 30
20 20 17 15 11 7 5 2 1 3 2 5 5 6 14 17 16 15 14 16 19 17 16 14 6 0 5 3 6 6 8 7 12 7 14 17 14 11 13 6 31 31 29 28 32
21 20 14 12 9 6 3 2 3 2 9 12 9 15 7 10 13 19 18 21 20 21 7 15 4 7 11 11 13 10 8 13 6 8 13 18 3 20 20 8 31 29 29 31 32
19 19 12 9 7 4 2 6 13 12 9 17 19 24 26 12 15 17 19 13 13 8 10 5 8 12 16 15 16 15 12 5 7 13 12 10 11 13 13 14 30 28 28 31 31
16 17 10 7 8 3 6 8 9 10 9 17 23 21 17 22 19 18 20 20 9 9 10 8 12 19 17 15 15 13 8 6 9 8 17 2 5 9 10 19 23 25 25 28 31
12 11 7 10 8 8 16 9 14 12 3 6 13 14 10 8 8 18 22 19 6 11 11 12 22 17 15 12 11 8 10 13 18 12 9 16 5 6 11 16 19 25 28 28 26
11 10 8 9 10 8 11 8 13 7 3 14 11 10 15 12 8 17 21 21 9 9 7 10 14 13 13 13 10 9 10 2 8 5 4 17 1 7 17 13 15 18 26 32 30
9 7 6 7 11 8 15 12 11 2 5 13 7 7 11 13 18 16 20 21 18 10 10 13 18 12 8 9 12 10 9 8 8 7 5 9 15 4 16 17 15 7 7 26 32
8 9 9 9 5 9 9 12 3 4 16 8 4 9 8 8 13 12 11 8 6 3 6 10 14 9 13 6 7 5 4 3 1 2 3 13 1 1 13 14 16 19 35 30 32
10 13 12 7 2 10 10 5 6 11 11 13 15 9 9 11 14 16 11 7 10 9 5 6 6 8 8 6 8 7 6 4 4 3 6 6 6 4 9 26 33 17 31 31 31
14 15 15 3 3 6 8 5 6 5 8 8 18 3 11 11 8 10 9 9 9 12 5 2 7 6 8 4 5 8 10 10 3 6 2 6 7 10 9 9 19 18 13 13 5
11 16 17 6 6 2 4 7 6 11 9 12 11 3 7 2 5 9 3 9 4 10 9 4 5 7 9 11 12 9 3 6 1 2 3 7 7 9 10 14 13 14 16 14 16
11 6 4 3 12 2 3 4 4 6 8 4 11 11 7 6 14 11 6 10 16 12 14 6 1 8 5 7 11 1 2 1 2 1 5 4 3 7 13 14 14 14 12 11 13
5 3 5 2 2 6 5 3 4 9 4 4 4 8 9 7 6 3 3 2 13 15 6 7 2 3 5 8 3 4 6 8 4 6 4 3 2 7 10 17 22 18 13 10 12
7 11 3 5 2 3 3 4 5 9 11 9 4 5 7 5 3 10 2 5 6 10 4 6 5 3 8 7 4 4 6 6 2 1 6 8 4 11 15 16 18 19 15 13 14
5 3 3 6 17 10 5 5 3 7 3 10 8 6 3 4 5 4 5 2 3 6 4 2 4 2 4 5 5 7 16 9 4 1 3 6 11 13 13 11 15 17 17 14 20
4 2 3 4 6 4 5 7 4 5 5 4 3 5 5 6 7 4 11 3 3 2 4 2 1 3 7 5 8 9 16 12 8 4 5 16 14 13 13 13 17 18 16 15 15
8 7 15 1 8 1 3 4 10 9 9 9 8 9 6 5 5 4 5 7 4 1 3 3 5 2 5 10 11 8 16 9 8 10 12 17 15 16 25 25 19 19 18 19 19
15 13 8 9 5 6 5 6 7 3 4 11 8 5 9 9 3 3 7 14 1 3 6 3 3 3 3 8 11 5 6 10 11 12 10 11 14 24 17 21 21 22 19 20 20
Wind_Direction
327 323 319 316 312 312 311 306 302 296 296 299 297 298 297 295 280 267 250 200 210 207 200 202 185 184 203 239 218 295 308 280 112 137 138 163 191 123 127 136 145 150 144 148 148
328 323 320 316 313 310 307 307 305 301 294 291 293 294 298 299 286 266 260 217 205 208 202 183 192 198 227 231 78 24 312 344 126 127 145 168 184 110 175 204 147 139 147 148 141
328 325 322 319 315 312 308 305 304 304 298 288 285 288 298 304 310 278 276 208 198 212 198 185 205 214 231 237 125 206 239 116 118 125 149 168 146 127 182 167 146 147 153 161 146
329 323 318 316 317 315 310 306 306 305 302 290 279 281 289 292 0 322 355 178 183 197 189 212 236 215 240 239 153 140 259 259 142 146 152 153 113 111 180 146 152 146 160 167 155
331 327 320 316 314 311 309 311 312 304 297 288 274 274 282 273 259 264 310 198 200 189 190 211 242 219 228 233 154 150 197 164 159 153 147 153 126 142 156 146 146 149 165 169 165
332 327 322 319 315 311 306 305 309 305 295 274 258 261 259 254 209 239 261 211 199 187 184 210 232 230 246 249 179 321 328 288 196 161 153 145 127 121 158 148 152 156 169 168 166
335 329 323 319 317 311 305 302 307 304 292 262 234 233 250 228 130 286 257 211 198 188 183 206 229 253 256 282 230 182 80 288 220 159 161 123 158 159 161 161 152 165 175 170 167
341 335 327 322 318 309 300 306 309 305 280 246 211 219 251 228 207 229 211 187 173 189 190 211 246 261 286 285 287 183 143 219 172 159 153 155 164 151 167 153 157 170 180 169 172
344 338 333 329 324 311 303 306 317 336 250 194 194 211 265 212 194 194 208 198 174 195 210 239 235 270 291 291 309 261 210 213 333 152 150 156 118 67 190 175 168 173 183 177 168
352 344 337 335 330 322 299 243 355 99 133 181 180 277 234 214 204 196 205 185 184 202 228 241 199 307 289 283 227 228 231 261 154 208 169 92 103 124 235 227 177 177 183 170 163
353 349 341 340 338 326 260 267 338 229 201 211 203 229 315 182 189 192 189 191 185 202 195 214 120 211 230 242 247 257 209 229 165 43 104 115 121 156 191 226 171 180 174 168 174
350 354 348 347 358 350 274 295 339 322 298 280 259 256 274 229 185 186 190 183 192 200 201 137 220 226 222 232 246 254 267 271 137 91 89 155 185 226 183 207 176 171 166 172 173
351 359 11 24 1 18 316 335 350 321 292 285 238 246 263 167 183 188 188 194 199 207 199 218 210 225 237 230 234 242 246 228 161 131 97 124 212 186 225 199 168 169 173 175 177
343 349 352 337 338 324 293 334 329 330 298 256 187 237 235 172 189 195 190 202 179 211 215 222 253 210 234 243 227 245 234 255 141 152 162 169 222 216 184 174 178 178 184 180 170
327 333 332 331 338 335 357 345 321 305 281 147 177 205 202 208 205 195 188 224 229 197 199 245 232 246 216 238 238 244 252 228 136 192 195 191 239 214 178 192 180 182 183 192 189
323 312 327 322 318 307 328 321 300 288 291 324 146 165 196 195 241 186 178 225 246 262 232 235 238 234 241 215 249 255 271 306 182 194 252 245 190 173 186 182 167 78 248 199 198
307 293 292 279 326 3 351 311 301 66 302 312 151 161 222 192 221 190 164 216 232 230 276 249 245 222 244 240 259 255 311 295 5 77 181 257 297 211 132 145 144 162 219 219 212
295 293 295 272 51 11 332 8 71 274 265 295 294 183 209 207 223 158 161 192 244 265 270 221 250 247 215 196 203 237 216 188 162 166 234 236 138 215 162 157 172 207 190 198 212
298 308 305 310 71 49 64 60 183 220 263 282 314 218 206 215 198 169 169 190 212 237 235 23 234 270 178 190 214 246 249 239 307 226 206 126 53 39 90 101 73 62 108 60 180
309 302 282 274 199 289 359 202 217 211 288 352 334 73 355 249 207 163 343 17 175 23 31 28 333 293 269 191 234 203 279 258 332 209 191 135 149 152 164 113 82 57 55 52 78
321 296 123 18 169 135 309 269 195 73 319 47 343 21 67 36 38 360 24 43 6 2 349 341 176 308 270 184 206 115 330 14 56 137 175 129 0 21 106 101 95 77 64 66 82
307 291 255 160 273 152 249 348 331 10 64 9 37 9 93 349 40 86 70 70 8 339 336 348 300 329 289 303 304 301 209 182 151 290 83 58 100 91 93 90 102 100 76 80 88
314 265 70 185 260 258 165 120 41 2 5 359 67 96 343 79 54 121 332 42 26 15 26 325 339 10 326 309 24 336 300 288 293 323 183 141 134 108 98 94 102 107 94 77 91
312 308 35 64 29 36 9 61 105 53 356 344 342 343 120 112 116 7 170 101 53 46 335 0 16 3 220 288 341 343 339 283 250 266 79 139 133 134 121 114 104 102 98 84 78
278 38 328 15 1 94 22 3 0 57 9 50 303 68 88 33 339 34 359 80 161 91 313 12 212 74 332 295 309 329 315 261 258 250 118 161 146 137 128 125 123 116 110 101 91
331 356 338 99 250 221 56 55 43 35 6 33 28 15 90 140 157 3 347 352 59 263 216 329 357 90 287 316 322 332 322 273 283 104 118 128 123 123 122 130 132 128 129 118 106
0 343 354 282 297 81 58 47 51 42 70 41 5 5 58 30 22 160 281 289 5 30 354 323 71 36 311 342 302 333 323 360 71 95 106 122 126 132 139 139 136 129 122 120 118
Height
1513 1511 1510 1508 1506 1504 1503 1502 1501 1500 1499 1499 1497 1496 1495 1495 1494 1494 1491 1494 1496 1499 1501 1503 1505 1506 1508 1510 1511 1511 1516 1511 1507 1511 1516 1519 1521 1525 1525 1526 1530 1531 1535 1540 1546
1511 1509 1508 1506 1504 1502 1501 1499 1498 1498 1497 1496 1496 1495 1494 1492 1491 1488 1490 1490 1493 1497 1500 1502 1503 1505 1507 1505 1516 1517 1521 1506 1497 1501 1512 1517 1519 1525 1526 1525 1528 1533 1538 1542 1548
1510 1508 1506 1504 1502 1500 1499 1498 1496 1496 1495 1495 1494 1493 1493 1491 1490 1484 1485 1487 1490 1494 1498 1500 1502 1504 1504 1503 1515 1520 1519 1502 1501 1503 1510 1514 1521 1528 1530 1529 1526 1530 1536 1541 1546
1508 1506 1504 1502 1501 1499 1497 1496 1495 1494 1493 1493 1492 1492 1492 1492 1490 1484 1485 1486 1489 1492 1497 1498 1501 1503 1502 1500 1505 1512 1507 1504 1502 1504 1508 1512 1520 1526 1525 1531 1529 1531 1537 1542 1547
1506 1504 1502 1500 1498 1497 1495 1494 1493 1492 1491 1490 1491 1491 1491 1491 1484 1483 1483 1485 1488 1491 1494 1496 1497 1499 1498 1494 1498 1506 1501 1500 1500 1502 1507 1512 1517 1524 1530 1524 1531 1533 1539 1544 1547
1504 1501 1499 1497 1496 1494 1494 1492 1491 1490 1489 1489 1489 1490 1491 1490 1482 1482 1483 1484 1486 1489 1492 1494 1493 1494 1494 1494 1496 1503 1499 1495 1505 1502 1506 1511 1516 1518 1526 1527 1531 1535 1540 1544 1548
1502 1500 1497 1495 1493 1492 1491 1491 1489 1487 1488 1487 1488 1488 1488 1481 1482 1482 1481 1483 1485 1488 1491 1491 1492 1494 1493 1492 1489 1494 1500 1493 1499 1501 1504 1509 1522 1519 1522 1527 1531 1536 1540 1544 1548
1501 1498 1495 1493 1492 1490 1488 1488 1487 1486 1486 1486 1487 1487 1481 1478 1480 1482 1481 1482 1485 1489 1490 1491 1493 1493 1492 1490 1486 1494 1498 1509 1483 1489 1497 1500 1522 1525 1527 1527 1530 1535 1540 1544 1550
1500 1497 1494 1491 1489 1488 1487 1486 1486 1485 1485 1486 1488 1488 1480 1477 1478 1480 1481 1483 1485 1488 1490 1491 1493 1493 1491 1494 1499 1487 1508 1498 1496 1486 1492 1499 1523 1511 1529 1534 1532 1534 1539 1543 1548
1500 1496 1492 1490 1488 1486 1486 1486 1486 1485 1486 1486 1488 1490 1475 1472 1474 1478 1481 1483 1486 1488 1490 1491 1491 1496 1495 1502 1522 1503 1500 1494 1498 1490 1489 1514 1528 1528 1527 1529 1531 1534 1537 1541 1547
1499 1495 1491 1488 1487 1487 1487 1487 1488 1487 1485 1479 1477 1472 1468 1469 1473 1475 1478 1482 1485 1487 1490 1488 1498 1508 1499 1492 1488 1487 1490 1493 1481 1487 1507 1514 1530 1522 1516 1522 1527 1529 1533 1537 1545
1499 1494 1491 1488 1487 1487 1487 1487 1484 1485 1479 1474 1472 1471 1468 1471 1473 1474 1477 1480 1482 1486 1485 1492 1501 1491 1489 1487 1485 1485 1492 1492 1484 1491 1502 1519 1523 1519 1511 1517 1522 1525 1530 1535 1541
1499 1496 1492 1491 1489 1488 1487 1485 1484 1483 1481 1470 1467 1467 1465 1466 1470 1473 1475 1478 1480 1485 1486 1493 1485 1482 1484 1483 1485 1484 1491 1491 1493 1493 1494 1522 1528 1524 1519 1518 1521 1525 1529 1534 1539
1499 1496 1493 1491 1491 1489 1486 1484 1483 1483 1487 1466 1465 1465 1465 1466 1469 1472 1475 1478 1477 1483 1482 1486 1476 1479 1479 1481 1479 1494 1473 1474 1486 1497 1518 1506 1540 1522 1513 1514 1518 1522 1526 1533 1539
1498 1496 1493 1491 1490 1488 1486 1486 1484 1483 1499 1459 1459 1461 1464 1467 1466 1469 1473 1475 1476 1477 1479 1483 1475 1477 1479 1475 1470 1480 1467 1471 1484 1497 1498 1508 1519 1511 1508 1519 1522 1524 1527 1532 1538
1496 1494 1493 1492 1490 1487 1485 1483 1484 1493 1492 1467 1455 1458 1462 1464 1464 1467 1471 1475 1473 1474 1472 1472 1466 1466 1468 1465 1466 1464 1469 1471 1477 1489 1513 1494 1504 1514 1512 1507 1518 1530 1536 1534 1536
1495 1493 1491 1491 1488 1485 1484 1485 1493 1509 1489 1464 1460 1456 1460 1463 1463 1464 1470 1477 1483 1488 1487 1470 1467 1463 1462 1470 1465 1467 1483 1516 1514 1521 1516 1485 1493 1507 1502 1510 1517 1521 1522 1531 1538
1494 1492 1490 1488 1486 1485 1485 1488 1516 1501 1490 1469 1462 1455 1464 1458 1460 1461 1470 1481 1474 1476 1483 1488 1492 1465 1460 1466 1476 1476 1484 1512 1521 1525 1514 1481 1516 1512 1498 1502 1513 1519 1511 1523 1530
1493 1493 1487 1485 1486 1487 1490 1506 1503 1500 1484 1473 1460 1459 1462 1455 1457 1460 1468 1476 1473 1470 1488 1484 1479 1457 1457 1461 1466 1477 1486 1471 1491 1489 1505 1506 1508 1506 1508 1516 1519 1520 1519 1523 1527
1493 1490 1486 1483 1487 1488 1490 1495 1487 1484 1474 1470 1476 1466 1476 1461 1461 1462 1471 1473 1468 1468 1466 1471 1491 1465 1459 1459 1463 1470 1465 1490 1492 1514 1514 1513 1513 1520 1522 1519 1525 1528 1525 1527 1528
1492 1489 1482 1484 1484 1486 1493 1487 1478 1477 1475 1476 1475 1471 1473 1477 1474 1479 1482 1479 1479 1475 1472 1473 1480 1475 1458 1464 1473 1476 1481 1478 1483 1492 1517 1530 1537 1524 1522 1523 1527 1531 1531 1532 1532
1492 1490 1480 1481 1484 1485 1491 1480 1479 1477 1475 1476 1475 1476 1482 1482 1485 1488 1488 1486 1483 1481 1484 1481 1479 1490 1474 1458 1455 1463 1472 1478 1506 1506 1510 1521 1538 1520 1524 1526 1528 1532 1534 1537 1539
1490 1486 1480 1480 1485 1484 1479 1479 1481 1482 1479 1478 1477 1481 1479 1484 1491 1489 1488 1486 1484 1486 1491 1488 1492 1504 1488 1473 1463 1472 1469 1470 1475 1483 1502 1529 1537 1527 1529 1529 1533 1533 1536 1540 1541
1490 1483 1480 1479 1479 1480 1481 1481 1482 1484 1483 1484 1482 1480 1482 1486 1489 1491 1490 1486 1486 1489 1489 1488 1492 1501 1514 1502 1489 1493 1482 1473 1479 1499 1505 1506 1529 1529 1531 1534 1535 1536 1537 1541 1542
1491 1485 1485 1490 1485 1484 1484 1484 1484 1487 1485 1485 1484 1483 1489 1500 1496 1493 1493 1487 1486 1488 1488 1489 1500 1496 1493 1488 1488 1488 1484 1473 1481 1479 1499 1512 1516 1523 1530 1536 1538 1539 1541 1543 1544
1493 1490 1487 1486 1483 1482 1486 1488 1489 1491 1493 1490 1490 1487 1490 1500 1500 1504 1500 1497 1494 1491 1490 1489 1503 1492 1502 1491 1489 1491 1485 1469 1472 1479 1493 1500 1519 1522 1528 1534 1540 1542 1546 1547 1547
1495 1493 1492 1487 1482 1484 1490 1491 1492 1493 1496 1496 1496 1495 1496 1497 1498 1497 1497 1497 1496 1496 1499 1497 1502 1510 1512 1499 1495 1507 1493 1489 1488 1481 1488 1510 1516 1521 1528 1533 1539 1543 1547 1548 1550